Location: Codford Saint Peter
(51.1597°N, 2.0531°W)
Time: 17:35:28
(UTC+00:00)

Envisat - Pass Details

Date: 02 February 2022
Orbit: 764 x 765 km, 98.2° (Epoch: 19 May)

Event Time Altitude Azimuth Distance (km) Brightness Sun altitude
Rises 04:54:50 0° 16° (NNE) 3,244 6.5 -26.6°
Reaches altitude 10° 04:57:11 10° 20° (NNE) 2,314 5.8 -26.2°
Maximum altitude 05:02:14 63° 101° (ESE) 856 3.4 -25.5°
Drops below altitude 10° 05:07:16 10° 183° (S) 2,298 5.4 -24.7°
Sets 05:09:35 0° 187° (S) 3,220 6.1 -24.3°
